Location: Diebersbach
(48.5163°N, 8.0558°E)
Time: 20:43:55
(UTC+00:00)

USA 229 - Pass Details

Date: 24 October 2021
Orbit: 946 x 1266 km, 63.4° (Epoch: 25 November)

Event Time Altitude Azimuth Distance (km) Brightness Sun altitude
Exits shadow 03:40:14 32° 218° (SW) 1,959 4.7 -24.0°
Drops below altitude 10° 03:45:22 10° 182° (S) 3,217 6.1 -23.1°
Sets 03:48:26 0° 174° (S) 4,199 6.8 -22.6°
